www.pogodaiklimat.ru

Погода и климат >> Архив погоды >> Россия >> Эвенкия >> Кислокан


ПОГОДА в Кислокане

  • Прогноз погоды в Кислокане
  • Монитор погоды в Кислокане
  • Климат города

АРХИВ ПОГОДЫ в Кислокане

Время (UTC), дата Ветер
(напр.,м/с)
 
Видим.   Явления Облачность Т
(С)
Тd
(С)
f
(%)
Тe
(С)
Тes
(С)
Комфортность P
(гПа)
Po
(гПа)
Тmin
(С)
Tmax
(С)
R
(мм)
R24
(мм)
S
(см)
03 13.11 ЮВ 2 4000 м слабый снег 10/0 2000 м
[Ac trans Cs]
-23.8 -26.3 80 -30 -30 1032.6 1003.2
06 13.11 ЮВ 1 50 км {снег} 10/0 2000 м
[Ac trans Ci sp]
-24.2 -27.4 75 -28 -28 1033.5 1004.1
09 13.11 Ю 2 н/о 3/0 2000 м
[Ac lent]
-24.8 -28.0 75 -31 -31 опасность
обморожения
1034.8 1005.3
12 13.11 штиль 0 н/о ясно -33.1 -36.0 75 -33 -33 опасность
обморожения
1036.8 1006.3 -22.3 0.2
15 13.11 С 1 н/о ясно -35.6 -38.4 75 -40 -40 опасность
обморожения
1038.0 1007.1
18 13.11 штиль 0 н/о ясно -37.2 -40.1 74 -37 -37 опасность
обморожения
1039.0 1007.8
21 13.11 штиль 0 н/о ясно -38.6 -41.4 75 -39 -39 опасность
обморожения
1039.6 1008.1
00 14.11 штиль 0 н/о ясно -39.7 -41.7 81 -40 -40 опасность
обморожения
1039.7 1008.1 -39.7 24
03 14.11 штиль 0 50 км 1/0
[Ci fib]
-37.4 -40.1 76 -37 -37 опасность
обморожения
1039.8 1008.6 -39.9
06 14.11 ЮЗ 1 50 км ясно -32.6 -35.5 75 -37 -37 опасность
обморожения
1039.0 1008.5
09 14.11 штиль 0 н/о 1/0
[Ci fib]
-36.1 -39.0 74 -36 -36 опасность
обморожения
1039.1 1008.0
12 14.11 штиль 0 н/о ясно -39.1 -41.8 75 -39 -39 опасность
обморожения
1039.7 1008.2 -32.6
15 14.11 штиль 0 н/о ясно -40.0 -42.8 74 -40 -40 опасность
обморожения
1039.8 1008.2
18 14.11 штиль 0 н/о ясно -40.5 -43.3 74 -41 -41 опасность
обморожения
1039.5 1007.8
21 14.11 ЮЗ 1 н/о ясно -38.6 -41.4 75 -44 -44 опасность
обморожения
1038.4 1007.1
00 15.11 штиль 0 н/о 6/0 2000 м
[Ac lent Ci fib]
-37.4 -40.1 76 -37 -37 опасность
обморожения
1037.9 1006.9 -40.8 24
03 15.11 штиль 0 50 км ясно -36.0 -39.0 74 -36 -36 опасность
обморожения
1037.5 1006.6
06 15.11 СЗ 1 50 км ясно -32.6 -36.2 70 -37 -37 опасность
обморожения
1036.4 1005.9
09 15.11 С 1 н/о ясно -33.6 -36.6 74 -38 -38 опасность
обморожения
1036.3 1005.7
12 15.11 штиль 0 н/о ясно -39.0 -41.8 75 -39 -39 опасность
обморожения
1037.1 1005.8 -32.6
15 15.11 С 1 н/о слабый снег 10/0 2000 м
[Ac trans Cs]
-33.6 -36.6 74 -38 -38 опасность
обморожения
1036.2 1005.6
18 15.11 штиль 0 н/о слабый снег 10/0 2000 м
[Ac trans Cs]
-32.8 -35.8 74 -33 -33 опасность
обморожения
1035.9 1005.4
21 15.11 С 2 н/о слабый снег 10/0 2000 м
[Ac trans Cs]
-32.6 -35.5 75 -41 -41 опасность
обморожения
1035.6 1005.1
00 16.11 СЗ 1 н/о в посл. час снег 10/0 2000 м
[Ac lent Cs]
-32.6 -35.5 75 -37 -37 опасность
обморожения
1035.5 1005.0 -39.0 0.2 24
03 16.11 СЗ 1 50 км 4/0 2000 м
[Ac lent Ci sp]
-32.4 -35.5 74 -37 -37 опасность
обморожения
1035.8 1005.4
06 16.11 С 1 50 км 6/0 2000 м
[Ac lent Ci sp]
-30.4 -34.1 70 -35 -34 опасность
обморожения
1035.2 1005.1
09 16.11 СЗ 2 н/о 10/0 2000 м
[Ac lent Ci sp]
-31.9 -35.0 74 -40 -40 опасность
обморожения
1036.2 1005.8
12 16.11 С 1 н/о ясно -37.0 -39.8 75 -42 -42 опасность
обморожения
1037.4 1006.4 -30.4
15 16.11 штиль 0 н/о ясно -38.6 -41.4 75 -39 -39 опасность
обморожения
1037.7 1006.4
18 16.11 штиль 0 н/о ясно -40.4 -43.3 73 -40 -40 опасность
обморожения
1038.1 1006.7
21 16.11 штиль 0 н/о ясно -41.0 -43.8 74 -41 -41 опасность
обморожения
1038.6 1007.0
00 17.11 ЮЗ 1 н/о ясно -42.4 -45.0 75 -48 -48 опасность
обморожения
1038.9 1007.2 -42.6 24
03 17.11 ЮЗ 1 50 км ясно -40.4 -43.3 73 -46 -46 опасность
обморожения
1038.8 1007.4 -42.8
06 17.11 С 1 50 км ясно -35.2 -38.0 75 -40 -40 опасность
обморожения
1038.2 1007.4
09 17.11 штиль 0 н/о ясно -38.9 -41.8 74 -39 -39 опасность
обморожения
1039.1 1007.6
12 17.11 штиль 0 н/о ясно -39.8 -42.8 73 -40 -40 опасность
обморожения
1039.5 1007.9 -35.2
15 17.11 штиль 0 н/о ясно -40.5 -43.3 74 -41 -41 опасность
обморожения
1039.4 1007.7
18 17.11 штиль 0 н/о ясно -41.2 -44.4 71 -41 -41 опасность
обморожения
1039.2 1007.5
21 17.11 штиль 0 н/о ясно -41.4 -45.0 68 -41 -41 опасность
обморожения
1038.3 1006.7
00 18.11 штиль 0 н/о ясно -42.4 -45.0 75 -42 -42 опасность
обморожения
1038.0 1006.3 -42.4 24
03 18.11 штиль 0 50 км 3/0
[Ci fib]
-41.1 -44.4 70 -41 -41 опасность
обморожения
1036.9 1005.3 -42.5
06 18.11 СЗ 1 50 км 3/0 2000 м
[Ac trans Ci fib]
-36.3 -39.7 71 -41 -41 опасность
обморожения
1035.3 1004.4
09 18.11 штиль 0 н/о 3/1 1000 м
[Sc Ci sp]
-37.8 -41.2 70 -38 -38 опасность
обморожения
1035.0 1003.8
12 18.11 штиль 0 н/о ясно -39.9 -42.8 74 -40 -40 опасность
обморожения
1035.0 1003.6 -36.3
15 18.11 штиль 0 н/о 4/0
[Ci sp]
-39.5 -42.3 74 -40 -40 опасность
обморожения
1034.2 1002.8
18 18.11 штиль 0 н/о 5/0
[Ci sp]
-39.1 -41.8 75 -39 -39 опасность
обморожения
1033.3 1002.1
21 18.11 штиль 0 н/о 8/0
[Ci sp]
-38.8 -41.8 73 -39 -39 опасность
обморожения
1032.7 1001.5
00 19.11 штиль 0 н/о слабый снег 10/0
[Cs]
-36.2 -39.0 75 -36 -36 опасность
обморожения
1031.0 1000.2 -40.1 0.0 24
03 19.11 ЮВ 1 4000 м слабый снег 10/0 2000 м
[Ac trans Cs]
-35.2 -38.0 75 -40 -40 опасность
обморожения
1029.5 998.9
06 19.11 В 1 4000 м слабый снег 10/0 2000 м
[Ac trans Cs]
-32.6 -35.5 75 -37 -37 опасность
обморожения
1026.8 996.6
09 19.11 штиль 0 н/о слабый снег 10/0 2000 м
[Ac trans Cs]
-29.6 -32.6 75 -30 -30 1023.8 994.0
12 19.11 ЮЗ 1 н/о слабый снег 10/0 2000 м
[Ac trans Cs]
-27.6 -30.7 75 -31 -31 опасность
обморожения
1020.5 991.1 -27.6 0.5
15 19.11 Ю 4 н/о слабый снег 10/0 2000 м
[Ac trans Cs]
-23.7 -27.0 74 -33 -33 опасность
обморожения
1016.9 987.9
18 19.11 ЮВ 1 н/о слабый снег 10/0 2000 м
[Ac trans Cs]
-22.7 -25.9 75 -26 -26 1014.4 985.7
21 19.11 ЮВ 2 н/о слабый снег 10/0 2000 м
[Ac trans Cs]
-22.1 -24.7 79 -28 -28 1013.3 984.7
00 20.11 штиль 0 н/о слабый снег 10/0 2000 м
[Ac trans Cs]
-21.2 -23.7 80 -21 -21 1013.7 985.2 -28.0 2 25

 

Местоположение метеостанции Кислокан (Эвенкия, Россия): широта 63.58 долгота 103.90 высота над уровнем моря 211 м.

В архиве по умолчанию представлена погода в Кислокане за последнюю неделю. Архивные данные за месяц целиком и за предыдущие месяцы, начиная с января 2011 года, Вы можете получить, выбрав интересующий диапазон дат из раскрывающегося списка и нажав кнопку "Ввод!".

Внимание! Время в таблицах - всемирное. Для получения местного времени необходимо прибавить поправку, которая в Кислокане равна 7 ч.

Смотрите также архив погоды в соседних городах и на ближайших метеорологических станциях:

Погода в Кербо (Эвенкия, Россия) (170 км)
Погода в Туре (Эвенкия, Россия) (190 км)
Погода в Стрелке-Чуне (Эвенкия, Россия) (211 км)
Погода в Тембенчи (Эвенкия, Россия) (285 км)
Погода в Муторае (Эвенкия, Россия) (308 км)
Погода в Ербогачене (Иркутская область, Россия) (332 км)
Погода в Ванаваре (Эвенкия, Россия) (371 км)
Погода в Туой-Хае (Якутия, Россия) (386 км)
Погода в Чернышевском (Якутия, Россия) (429 км)
Погода в Хабардино (Якутия, Россия) (433 км)

Пояснения к столбцам:

Ветер - указаны скорость ветра в м/с - средняя за 10 мин, порывы в срок и между сроками (в фигурных скобках) и направление, откуда дует ветер: С - северный, СВ - северо-восточный, В - восточный, ЮВ - юго-восточный, Ю - южный, ЮЗ - юго-западный, З - западный, СЗ - северо-западный.
Видимость - горизонтальная дальность видимости в метрах или километрах. При видимости от 1 до 10 км при отсутствии осадков обычно наблюдается дымка, при ухудшении видимости до 1 км и менее - туман. В сухую погоду видимость может ухудшаться дымом, пылью или мглою.
Явления - указаны атмосферные явления, наблюдавшиеся в срок или в последний час перед сроком; фигурными скобками обозначены явления, наблюдавшиеся между сроками (за 1-3 часа до срока); квадратными скобками обозначены град или гололедные отложения с указанием их диаметра в мм.
Облачность - указаны через наклонную черту общая и нижняя облачность в баллах и высота нижней границы облаков в метрах; квадратными скобками обозначены формы облаков: Ci - перистые, Cs - перисто-слоистые, Cc - перисто-кучевые, Ac - высококучевые, As - высокослоистые, Sc - слоисто-кучевые, Ns - слоисто-дождевые, Cu - кучевые, Cb - кучево-дождевые. Подробнее классификацию облаков см. в Атласе облаков (PDF).
T - Температура воздуха - температура, измеренная на высоте 2 м над землей.
Td - Температура точки росы - температура, при понижении до которой содержащийся в воздухе водяной пар достигнет насыщения.
f - Относительная влажность воздуха - влажноcть воздуха, измеренная на высоте 2 м над землей.
Te - Эффективная температура - температура, которую ощущает одетый по сезону человек в тени. Характеристика душности погоды. При расчете учитывается влияние влажности воздуха и скорости ветра на теплоощущения человека.
Tes - Эффективная температура на солнце - температура, которую ощущает человек, с поправкой на солнечный нагрев. Характеристика знойности погоды. Зависит от высоты солнца над горизонтом, облачности и скорости ветра. Ночью, в пасмурную погоду, а также при ветре 12 м/с и более поправка равна нулю.
P - Атмосферное давление - приведенное к уровню моря атмосферное давление.
Po - Атмосферное давление - измеренное на уровне метеостанции атмосферное давление.
Tmin - Минимальная температура - минимум температуры воздуха на высоте 2 м над землей.
Tmax - Максимальная температура - максимум температуры воздуха на высоте 2 м над землей.
R - Количество осадков - Количество выпавших осадков за период времени, мм. При наведении курсора мыши на число - период времени, за который выпало указанное количество осадков.
R24 - Количество осадков - Количество выпавших осадков за 24 часа, мм.
S - Снежный покров - Высота снежного покрова, см. При наведении курсора мыши на число - состояние снежного покрова и степень покрытия местности в баллах.